This is the latest recevied weather packets stored in our database for station/object KD9JB-1. If no packets are shown the sender has not sent any weather packets the latest 10 day(s).
| Time | Temp. | Humidity | Pressure | Rain* | Wind** | Luminosity | Snow |
|---|---|---|---|---|---|---|---|
| 1778100693 | 16.11° C | 51% | 1015.4 hPa | 0 mm | - | - | - |
| 1778100393 | 16.67° C | 53% | 1015.2 hPa | 0 mm | - | - | - |
| 1778100093 | 16.11° C | 55% | 1015.2 hPa | 0 mm | - | - | - |
| 1778099793 | 16.67° C | 51% | 1015.2 hPa | 0 mm | - | - | - |
| 1778099493 | 16.67° C | 53% | 1015.3 hPa | 0 mm | - | - | - |
| 1778099193 | 16.67° C | 51% | 1015.1 hPa | 0 mm | - | - | - |
| 1778098893 | 16.67° C | 50% | 1015.1 hPa | 0 mm | - | - | - |
| 1778098593 | 16.67° C | 54% | 1015.2 hPa | 0 mm | - | - | - |
| 1778098293 | 16.67° C | 52% | 1015.2 hPa | 0 mm | - | - | - |
| 1778097993 | 16.67° C | 54% | 1015.2 hPa | 0 mm | - | - | - |
| 1778097693 | 16.11° C | 54% | 1015.1 hPa | 0 mm | - | - | - |
| 1778097393 | 16.11° C | 52% | 1015.2 hPa | 0 mm | - | - | - |
| 1778097093 | 16.11° C | 50% | 1015.1 hPa | 0 mm | - | - | - |
| 1778096793 | 16.11° C | 54% | 1015 hPa | 0 mm | - | - | - |
| 1778096493 | 15.56° C | 55% | 1015.1 hPa | 0 mm | - | - | - |
| 1778096193 | 15.56° C | 56% | 1015.1 hPa | 0 mm | - | - | - |
| 1778095893 | 15.56° C | 55% | 1015.1 hPa | 0 mm | - | - | - |
| 1778095593 | 15.56° C | 55% | 1015.1 hPa | 0 mm | - | - | - |
| 1778095293 | 15.56° C | 55% | 1015.1 hPa | 0 mm | - | - | - |
| 1778094993 | 15.56° C | 58% | 1015 hPa | 0 mm | - | - | - |
| 1778094693 | 15° C | 59% | 1015.1 hPa | 0 mm | - | - | - |
| 1778094393 | 15° C | 58% | 1015.3 hPa | 0 mm | - | - | - |
| 1778094093 | 15.56° C | 57% | 1015.3 hPa | 0 mm | - | - | - |
| 1778093793 | 15.56° C | 59% | 1015.3 hPa | 0 mm | - | - | - |
| 1778093493 | 15° C | 60% | 1015.2 hPa | 0 mm | - | - | - |
* Rain latest hour (hover to see other rain measurements)
** Current wind speed in m/s (hover to see current wind gust speed)